Location: Ku?niki
(51.4449°N, 17.8974°E)
Time: 15:29:13
(UTC+00:00)

ATLAS CENTAUR R/B - Pass Details

Date: 18 September 2020
Orbit: 479 x 667 km, 64.7° (Epoch: 12 October)

Event Time Altitude Azimuth Distance (km) Brightness Sun altitude
Rises 17:49:04 0° 259° (W) 2,657 6.1 -9.1°
Reaches altitude 10° 17:51:36 10° 273° (W) 1,740 5.4 -9.5°
Maximum altitude 17:54:46 24° 329° (NNW) 1,082 3.4 -10.0°
Drops below altitude 10° 17:57:53 10° 25° (NNE) 1,688 3.7 -10.5°
Sets 18:00:18 0° 40° (NE) 2,558 4.5 -10.8°
